Wind_Speed
40 42 42 42 42 42 41 40 39 38 38 38 39 40 40 40 40 40 40 39 39 38 37 37 36 35 34 33 33 33 33 33 33 34 34 35 35 35 35 35 35 34 34 34 33 33 33 33 33 33 32 32 32 31 31 31 30 29 28 27 25 24 23 22 22 22 22 22 21
41 42 42 42 42 42 41 40 39 39 38 39 39 39 40 40 40 40 39 39 38 38 37 36 36 35 34 34 33 33 33 34 34 35 35 36 36 36 36 35 35 35 34 34 34 34 34 34 34 34 34 34 33 33 33 32 31 30 29 28 27 26 24 24 23 23 22 22 22
41 42 42 42 42 42 41 41 40 39 39 39 39 40 40 40 40 40 39 38 38 37 37 37 36 35 34 34 33 33 34 34 35 35 36 36 36 36 36 36 35 35 35 34 34 35 35 35 36 36 36 35 35 35 34 33 32 31 31 29 28 27 26 25 24 24 23 23 23
41 42 42 42 42 42 42 41 41 40 39 39 39 40 40 40 40 39 39 38 38 38 37 37 36 35 34 34 34 33 34 34 35 35 36 36 36 37 36 36 36 35 35 35 35 35 36 36 37 37 37 37 36 36 35 34 33 33 32 31 30 28 27 26 26 25 25 25 25
41 41 42 43 43 43 42 42 41 40 39 39 39 40 40 40 40 40 39 39 39 38 37 36 36 35 34 34 34 33 33 34 35 35 36 36 36 36 36 36 36 36 36 36 36 36 37 37 38 38 38 38 37 37 36 35 34 33 32 32 31 30 29 28 27 27 26 26 26
41 41 42 42 42 42 42 41 41 40 39 39 39 39 40 40 41 41 41 40 39 38 37 36 36 35 35 34 34 33 34 34 35 35 36 36 36 36 37 37 37 37 37 37 37 38 38 38 39 39 39 38 38 38 37 36 35 34 33 33 32 31 30 29 28 28 27 27 27
41 41 41 42 42 42 42 41 41 40 39 39 39 39 39 40 40 41 40 40 39 38 37 37 37 36 35 35 34 34 34 34 34 35 36 36 36 37 37 37 37 38 38 38 39 39 39 39 40 40 39 39 39 39 38 36 35 34 34 33 33 32 31 30 29 29 29 28 28
41 41 41 41 41 42 41 41 41 40 40 39 39 38 38 38 39 39 39 39 39 39 38 38 37 37 36 35 35 34 34 34 34 35 36 36 37 37 37 38 38 39 39 40 40 40 40 40 40 41 41 40 40 39 38 37 36 35 34 34 33 33 32 31 31 30 30 30 30
41 41 41 41 41 41 41 41 41 40 40 39 38 37 36 36 37 37 38 39 39 39 38 38 37 37 36 36 35 35 35 35 35 35 36 36 37 38 38 39 39 40 40 41 41 41 41 41 42 42 42 41 40 39 37 36 35 35 35 35 34 34 34 33 32 32 31 31 31
41 41 41 41 41 41 40 40 40 40 39 38 37 36 35 35 36 36 37 37 38 38 38 38 38 37 37 37 36 36 36 35 36 36 36 37 37 38 38 39 40 40 41 42 42 42 42 42 43 43 43 42 40 38 36 35 34 35 35 36 36 36 36 35 34 33 33 32 32
40 40 40 41 41 40 40 40 40 40 39 38 37 36 36 36 36 36 36 36 37 38 38 38 37 37 37 37 37 36 36 36 36 37 37 37 38 38 39 39 40 41 41 42 42 43 43 43 44 44 43 41 39 37 35 35 35 36 37 38 38 38 37 36 35 35 34 34 33
39 39 39 40 40 40 40 40 40 40 39 39 38 37 36 36 36 36 36 37 38 38 37 37 37 37 37 37 37 36 36 37 37 37 37 38 38 39 39 40 40 41 41 42 43 43 43 44 44 44 43 41 38 37 37 37 38 38 39 39 39 39 38 37 37 36 35 34 34
40 39 39 40 40 40 40 40 40 40 40 39 39 38 38 37 37 37 38 38 38 38 37 37 37 37 37 37 36 36 36 36 36 37 37 38 38 38 39 40 40 40 41 42 42 43 43 43 43 43 42 40 39 38 38 39 40 40 40 40 40 39 39 38 37 36 35 35 36
40 40 40 40 40 40 40 40 40 40 40 40 39 39 39 39 39 39 39 39 39 38 38 37 37 37 37 36 36 36 36 36 36 36 36 37 37 37 38 38 39 39 40 40 41 41 41 41 42 42 41 40 40 40 40 41 41 40 40 40 39 39 38 38 37 36 36 36 37
40 40 40 40 40 40 40 40 40 40 40 40 40 40 40 40 40 40 40 40 39 39 38 38 38 37 37 36 36 36 35 35 36 36 36 36 36 36 36 36 37 37 37 38 38 38 39 39 40 40 40 40 41 41 41 41 40 39 39 39 39 38 38 37 36 36 36 37 39
40 40 40 40 40 40 40 40 40 40 41 41 40 40 40 41 40 40 40 40 40 39 39 39 38 38 37 36 36 36 36 36 35 35 35 35 35 34 34 34 34 34 35 35 36 36 37 37 38 38 38 39 41 41 40 38 38 38 38 38 38 38 38 37 36 36 36 38 40
39 39 40 40 40 40 40 40 40 40 40 40 40 40 40 40 40 40 40 40 40 39 39 39 38 38 37 37 36 36 36 36 36 35 35 34 34 33 33 33 33 33 34 34 35 36 36 36 36 36 37 38 39 38 37 36 36 36 37 37 38 37 37 36 36 36 37 39 40
37 38 39 39 40 40 39 39 39 39 39 39 39 39 40 40 40 40 40 40 39 39 39 38 38 37 37 37 36 36 36 36 36 35 35 34 33 33 33 33 33 34 35 35 35 36 35 35 35 35 36 37 36 36 35 35 35 36 36 36 36 36 36 36 35 36 38 39 39
37 37 38 39 39 39 39 39 39 39 38 38 38 38 39 39 39 39 39 39 38 38 38 37 37 37 37 37 36 36 36 36 36 35 35 35 35 35 35 35 35 35 36 36 35 35 34 34 35 35 35 35 34 34 34 35 35 35 35 35 35 35 35 35 35 36 38 38 37
37 37 37 38 38 38 38 38 38 38 37 37 38 38 38 38 38 38 39 38 37 37 37 37 37 37 37 37 37 37 37 37 37 37 37 37 37 37 37 37 36 36 35 35 35 34 34 35 35 35 34 33 33 32 33 34 35 35 35 35 34 34 35 35 35 36 36 35 34
38 37 37 37 37 37 37 37 37 37 37 37 37 37 38 38 38 38 38 37 37 37 37 37 37 38 38 38 38 39 39 39 39 39 38 38 38 37 37 36 35 35 35 35 35 35 35 36 36 35 34 33 32 32 32 33 34 34 34 34 34 34 34 34 35 35 34 33 32
38 38 37 37 37 37 37 37 37 37 37 37 37 38 38 38 38 38 38 38 38 38 38 38 38 38 39 39 40 40 39 39 38 38 37 36 35 35 35 35 35 35 36 36 37 36 36 36 35 34 34 33 32 32 32 32 32 33 33 34 34 34 34 35 35 34 33 32 31
39 38 38 38 38 38 38 38 38 38 38 38 38 38 38 39 39 39 39 38 39 39 39 39 39 39 39 39 38 37 37 37 36 35 35 34 34 34 34 35 35 36 37 38 38 37 36 35 34 33 34 34 33 32 31 31 31 31 32 33 34 34 35 35 35 34 32 31 29
39 39 39 39 39 38 38 38 38 38 39 39 39 39 39 39 39 39 39 39 39 40 40 40 40 39 38 36 35 35 35 36 35 34 34 35 34 34 34 35 36 37 38 38 38 37 36 34 34 34 34 34 34 33 32 31 30 31 31 33 34 36 36 37 35 34 32 31 28
40 40 40 40 39 39 39 39 39 39 39 39 39 39 40 40 39 39 39 39 40 40 40 40 39 37 36 34 34 34 35 36 35 35 35 36 35 35 36 37 37 37 38 38 38 37 36 35 35 36 36 35 34 34 33 32 31 30 31 32 35 37 38 37 36 34 33 31 29
41 41 40 40 40 40 39 39 39 39 39 39 39 39 40 40 39 39 39 39 40 40 40 39 38 37 35 35 34 35 35 35 35 35 36 36 37 37 38 38 38 38 38 39 39 38 36 33 33 34 35 35 34 34 34 32 31 30 31 32 35 37 38 37 36 35 33 31 29
41 41 40 40 40 40 40 39 39 39 39 39 39 39 39 39 39 39 40 40 40 39 39 38 37 36 35 34 34 34 35 35 35 35 36 37 38 38 39 40 39 38 38 39 39 38 34 31 29 29 30 32 33 33 32 32 31 30 31 33 35 36 37 36 35 35 33 31 29
42 41 40 40 39 39 39 39 39 39 39 39 39 39 39 39 39 39 39 39 39 39 39 38 38 37 36 36 35 34 33 33 33 35 36 37 38 38 39 39 38 38 38 38 38 36 33 30 27 27 29 32 33 32 31 30 30 30 32 34 35 35 35 35 34 34 33 31 28
42 41 40 39 39 39 39 39 39 40 40 40 39 39 39 39 39 39 39 39 39 39 39 39 39 39 39 39 38 36 34 32 32 33 34 36 37 38 38 38 38 37 38 38 36 33 30 28 27 27 29 31 33 33 32 30 30 31 32 34 35 34 34 34 33 32 31 29 28
42 41 40 39 39 39 39 39 39 39 39 40 40 40 39 39 39 39 39 39 40 40 41 41 42 42 42 42 40 37 35 33 31 30 32 35 36 37 38 38 38 37 37 36 33 31 28 26 26 26 28 30 31 32 32 31 30 31 33 34 34 34 33 32 31 30 30 28 27
42 41 39 36 35 35 36 38 38 39 39 39 40 40 40 40 40 40 40 40 41 42 42 43 43 44 44 44 42 38 37 36 34 31 30 32 34 36 37 37 37 37 36 34 32 29 27 26 25 26 28 30 31 31 31 31 31 32 33 34 33 33 32 31 30 29 28 28 27
44 42 37 31 29 32 37 40 40 40 40 40 41 41 41 41 41 41 41 41 42 43 43 44 44 45 45 45 42 39 39 42 41 36 32 31 32 34 35 36 36 35 34 33 31 29 27 26 27 29 30 32 32 32 32 31 31 32 34 34 34 33 31 29 28 28 27 27 27
47 44 38 31 30 33 38 41 41 41 41 41 42 42 42 42 42 42 42 42 42 43 43 44 44 44 43 41 39 37 37 39 39 39 38 34 32 32 34 35 35 35 34 32 31 29 28 28 29 31 31 31 30 30 30 30 30 32 33 34 34 32 29 28 27 27 27 27 28
49 47 41 37 35 35 36 39 41 41 41 41 42 42 42 42 42 42 42 42 42 42 42 41 39 37 35 33 32 32 31 31 33 38 41 39 36 35 35 35 35 35 34 33 32 31 30 30 30 30 29 27 27 27 27 28 29 31 33 34 33 30 28 27 27 27 28 28 29
52 50 46 41 38 35 36 38 40 40 40 40 41 41 41 40 39 39 39 39 38 38 37 35 32 28 23 21 21 22 23 27 32 38 43 45 43 41 40 38 36 35 33 33 33 32 31 31 31 30 27 26 25 26 26 27 29 31 33 33 31 29 28 27 28 28 29 29 29
54 52 48 44 39 37 37 38 38 38 38 39 39 39 38 36 34 33 33 32 33 33 30 25 22 17 13 12 14 18 24 30 34 38 41 44 45 45 43 40 37 34 33 32 31 31 31 31 31 29 27 26 26 26 27 28 30 32 32 31 29 28 28 28 29 29 29 29 28
53 51 48 45 42 39 38 38 37 36 36 36 35 34 32 30 28 27 26 26 26 25 21 16 12 11 14 17 18 21 25 28 32 35 38 41 44 45 43 40 36 34 32 30 30 30 31 32 31 30 28 27 26 27 28 30 31 32 31 29 29 29 29 29 29 29 29 28 28
51 49 47 46 44 42 41 39 37 35 34 33 31 29 26 23 21 20 20 19 18 16 14 13 14 18 22 25 24 23 26 29 32 34 37 40 43 43 41 39 37 35 32 30 30 31 32 31 30 28 27 26 27 28 30 32 32 31 30 29 29 29 29 29 29 29 28 28 27
49 48 47 47 46 45 43 41 37 34 32 30 27 24 20 16 14 13 12 11 13 16 19 20 23 25 27 27 26 27 29 30 31 33 35 38 40 40 39 38 37 35 32 31 31 31 31 29 27 26 26 26 28 30 31 32 31 30 29 28 29 29 30 29 29 28 28 28 28
49 48 48 48 48 48 45 41 36 32 29 27 24 20 16 12 9 8 12 18 22 26 29 32 32 32 31 29 28 28 28 29 30 31 33 35 37 37 37 37 35 33 32 31 31 30 28 26 25 25 26 28 30 31 31 30 29 28 28 29 29 29 29 29 28 28 28 28 29
48 47 48 48 49 48 45 39 34 30 27 25 21 18 15 12 12 19 26 31 33 34 36 38 38 35 33 30 28 26 26 27 29 31 32 33 34 34 34 33 32 31 31 30 30 28 26 25 25 27 28 30 31 31 30 29 28 27 28 29 29 29 29 28 28 28 28 29 29
Wind_Direction
210 210 209 210 211 212 213 214 214 214 213 211 208 206 206 206 206 207 209 211 213 215 217 219 220 221 222 222 222 222 221 220 220 219 219 219 220 222 223 223 224 225 226 226 227 227 228 230 231 232 233 234 234 234 233 233 232 231 232 232 233 234 235 236 237 238 240 241 242
212 212 212 213 214 215 216 217 217 217 216 214 212 210 209 209 210 211 213 215 217 219 221 222 224 225 225 226 226 225 224 223 222 221 221 221 222 223 224 225 225 226 227 228 228 229 229 230 232 233 233 234 234 234 234 233 233 232 232 233 234 235 236 237 238 239 240 242 242
215 215 215 215 216 218 219 219 220 219 219 217 216 214 213 214 215 216 217 219 221 222 224 225 227 228 229 230 230 229 228 227 226 225 224 224 224 224 225 226 227 228 229 229 230 231 231 232 233 234 235 236 236 235 235 235 234 233 233 234 235 236 237 238 240 241 241 241 242
217 217 218 218 219 220 221 222 222 222 221 220 219 218 217 218 219 220 222 223 224 225 227 228 230 231 232 233 233 232 232 230 229 228 227 227 226 226 227 227 228 229 230 231 232 233 234 234 235 236 237 238 238 238 237 237 237 236 235 236 237 238 239 241 242 243 242 242 242
220 220 221 221 222 223 224 225 225 225 224 224 223 222 222 222 223 224 225 226 227 228 229 231 232 234 235 235 236 235 235 234 233 232 231 231 230 230 230 230 230 231 232 233 233 234 235 236 237 238 238 239 240 240 241 240 239 238 238 238 239 240 241 242 244 244 244 243 243
221 222 223 224 224 225 226 227 228 228 228 227 227 226 226 226 227 227 228 229 230 231 232 233 234 236 237 237 238 238 237 236 236 235 235 234 233 233 233 232 233 233 234 234 235 236 236 237 238 239 240 241 241 242 242 242 241 240 240 240 241 242 243 244 245 246 246 245 243
223 224 225 225 226 226 227 228 229 230 231 231 231 230 230 230 230 230 231 232 233 234 234 235 236 237 238 239 239 239 238 238 237 237 237 237 236 235 235 235 235 235 235 236 236 237 237 238 239 240 241 241 242 242 243 243 242 242 242 242 244 245 246 247 248 248 247 246 245
225 226 226 227 227 228 228 229 231 232 233 234 234 234 233 233 233 233 234 234 235 236 236 237 238 239 240 241 241 241 240 240 239 238 238 238 238 238 237 237 236 237 237 237 238 238 238 239 240 241 242 242 242 243 243 244 244 244 244 245 247 248 250 250 251 250 249 248 247
225 226 227 228 229 229 230 231 232 234 235 236 236 235 235 235 235 235 235 236 237 237 238 239 240 241 242 243 243 243 242 242 241 240 240 239 239 239 239 238 238 238 238 239 239 239 240 240 241 242 243 243 244 245 245 246 245 246 247 248 250 251 252 252 252 251 250 249 249
226 226 227 228 230 230 231 232 233 235 236 237 237 237 236 236 236 236 237 237 238 239 240 241 242 243 244 245 245 245 245 244 243 242 242 241 241 241 240 240 240 240 240 240 241 241 241 242 242 243 244 245 246 247 247 248 248 248 249 250 251 252 252 252 251 251 250 251 251
227 227 228 228 230 231 232 233 234 235 236 237 238 237 237 237 237 237 238 239 240 241 242 243 244 245 246 247 247 247 247 246 246 245 244 243 243 243 243 242 242 242 242 242 242 243 243 243 244 245 246 247 248 248 248 248 248 249 249 250 250 250 250 250 250 250 251 252 253
228 229 229 230 231 232 233 234 234 235 236 237 237 238 238 238 238 238 239 240 241 242 244 245 246 247 248 249 249 249 249 248 248 247 247 246 245 245 245 245 245 244 244 244 245 245 245 245 246 246 248 249 249 249 248 248 248 247 247 248 248 249 249 249 250 250 251 253 255
229 230 230 231 231 232 233 234 235 235 236 237 237 238 238 239 239 239 240 241 242 244 245 246 247 248 249 250 250 250 250 250 250 249 249 249 248 247 247 247 247 247 247 247 247 248 248 248 248 248 249 249 249 249 249 249 248 247 247 247 247 248 248 249 249 250 252 254 256
229 231 231 232 232 233 233 234 235 236 237 237 238 239 239 240 240 240 241 242 243 245 246 247 248 249 250 250 250 251 251 251 251 251 251 251 250 250 249 249 249 249 249 249 249 250 251 251 251 250 249 249 249 250 250 250 249 248 248 248 248 248 249 249 249 250 252 255 258
229 231 232 233 233 233 234 235 235 236 237 238 239 240 240 241 241 242 242 243 244 245 247 248 249 249 250 250 250 251 251 251 251 252 252 252 251 251 251 251 251 251 251 251 252 252 253 253 252 251 250 250 251 251 251 250 250 250 250 250 251 251 251 250 250 251 254 258 261
230 231 232 233 234 234 235 236 236 237 238 239 240 241 241 242 243 243 244 244 245 246 247 248 249 249 250 250 250 251 251 251 251 252 252 252 252 252 252 252 252 252 252 252 253 254 254 254 253 252 253 253 254 253 253 252 252 252 252 252 252 253 252 252 251 253 257 261 264
231 232 232 233 234 235 236 236 237 238 239 240 241 242 243 243 244 244 245 246 246 247 247 248 248 249 249 250 250 250 251 251 251 251 251 251 251 251 252 252 253 253 253 253 253 254 255 255 254 255 255 256 257 256 256 256 256 255 254 254 254 254 253 252 252 255 260 265 267
232 232 233 233 235 236 237 237 238 239 240 240 241 243 243 244 245 246 246 247 248 248 248 248 249 249 250 250 250 250 250 251 251 251 251 252 252 253 253 254 254 254 254 254 255 255 256 256 257 257 258 259 259 260 261 261 260 259 258 257 256 255 254 253 254 258 263 267 270
233 233 233 234 235 236 237 238 239 239 240 241 242 243 244 245 246 247 248 249 249 249 250 250 250 250 250 251 251 251 251 252 252 253 253 254 254 255 255 256 255 255 255 255 256 257 257 258 258 259 260 260 261 263 264 265 264 263 262 261 259 256 254 254 256 261 266 270 271
234 234 234 234 235 236 238 239 240 240 241 242 243 244 245 246 247 248 249 250 251 251 252 252 252 252 252 252 253 253 253 253 254 254 255 255 255 256 256 255 253 254 254 255 256 257 258 258 259 260 261 261 263 264 266 266 265 265 263 262 260 257 255 255 259 265 271 275 273
235 235 235 235 236 237 238 239 240 241 242 243 244 244 246 247 248 249 251 252 252 253 254 254 254 254 255 255 255 255 255 254 254 254 254 253 254 255 255 254 254 254 255 255 256 257 258 258 260 261 262 263 263 264 265 265 265 264 263 261 258 256 254 256 261 269 276 280 278
236 236 237 237 237 238 239 240 241 242 243 244 245 245 246 248 249 251 252 253 253 254 255 256 257 257 257 257 257 256 255 254 253 253 252 251 252 253 254 254 254 254 255 255 255 256 256 257 259 262 263 265 265 265 266 266 266 265 263 260 256 254 253 255 262 271 279 284 282
237 237 238 239 239 240 240 241 242 243 244 245 246 246 247 248 250 251 252 253 254 255 256 258 259 259 258 257 256 255 254 254 253 252 251 252 252 252 252 252 253 254 255 255 255 254 254 257 260 264 266 266 266 266 266 267 267 266 263 259 255 252 252 255 262 271 280 285 284
238 238 239 240 241 242 242 243 243 244 245 246 247 248 248 249 250 251 252 253 254 255 257 258 259 258 256 253 253 253 255 256 254 252 251 253 253 252 251 252 253 254 255 255 254 254 255 259 263 266 268 268 267 266 266 267 268 266 263 258 253 251 251 255 262 272 280 284 284
239 239 240 241 242 243 244 244 245 246 247 248 249 250 251 251 251 252 252 253 255 256 257 258 258 257 254 252 252 254 256 256 254 253 253 254 252 251 251 253 254 256 256 256 255 256 259 263 266 269 270 270 268 267 267 267 268 266 262 257 252 251 252 256 263 273 280 283 282
239 238 239 240 242 243 245 246 247 248 249 250 251 252 253 254 254 254 254 255 256 257 257 258 257 256 255 254 254 254 255 255 253 252 253 252 252 252 252 253 255 257 258 257 257 258 262 266 269 271 272 271 268 266 266 266 267 265 261 256 252 251 253 258 266 274 281 283 281
238 238 238 239 241 242 244 246 248 249 250 251 252 253 254 256 256 256 256 256 257 257 257 256 256 255 254 253 252 252 252 253 253 253 253 253 252 251 252 253 256 257 257 256 257 260 264 268 269 269 269 270 268 265 263 263 264 263 260 256 254 254 257 262 270 277 281 282 279
238 238 239 240 241 242 244 247 248 250 251 252 253 255 256 256 257 256 257 257 257 256 256 255 254 253 251 249 247 248 250 252 254 254 254 253 251 250 251 252 254 254 254 254 257 262 267 270 269 268 270 272 272 269 265 262 260 259 257 256 256 259 264 271 277 280 281 281 277
239 240 240 241 242 244 246 248 249 251 252 254 255 256 256 256 256 256 256 255 255 254 253 253 252 251 249 247 246 246 249 252 254 254 253 251 250 249 250 251 252 253 254 255 259 263 267 269 270 272 275 277 278 275 270 264 258 255 254 255 259 265 273 279 282 282 280 278 275
240 241 241 242 244 246 248 250 252 253 254 255 255 255 255 255 255 255 254 253 251 251 252 252 252 251 250 248 247 247 248 249 250 251 251 250 250 250 251 251 252 253 255 257 260 262 264 267 271 275 280 282 281 278 272 265 257 252 252 255 263 272 280 284 283 281 279 276 271
241 240 241 244 249 253 255 256 256 256 255 254 253 253 253 253 253 253 252 251 250 250 251 251 251 251 250 249 248 247 247 247 249 250 252 252 253 253 253 253 254 255 256 258 259 260 262 265 271 277 282 284 283 279 273 264 255 251 251 257 267 277 283 284 282 279 276 273 267
241 239 238 241 251 260 264 263 260 257 254 253 252 251 251 251 251 251 251 250 250 250 250 250 249 249 249 248 248 248 249 250 251 255 258 258 257 257 257 256 256 256 256 256 256 257 260 265 273 280 284 284 282 278 273 263 254 251 254 262 272 279 282 281 279 276 272 268 261
242 238 234 232 238 248 256 259 257 253 250 249 249 250 250 250 249 249 249 248 248 248 248 247 246 245 246 247 249 252 255 254 253 257 262 263 263 261 260 259 257 256 255 254 253 254 258 266 276 282 284 281 277 273 268 260 252 252 258 267 275 279 280 277 274 270 266 261 257
243 238 233 229 231 238 246 250 249 246 243 243 245 246 246 246 246 246 246 246 245 245 244 243 242 244 249 255 260 264 265 260 253 255 260 264 266 266 264 261 259 257 256 255 254 255 260 269 278 283 281 276 270 265 261 254 251 254 261 269 275 277 275 271 268 264 261 259 258
242 237 233 230 231 236 241 243 242 239 237 238 240 241 242 242 242 243 243 243 243 241 239 240 244 251 260 269 277 280 276 268 256 252 254 260 264 265 264 262 261 261 261 260 258 259 264 273 280 281 277 269 263 258 254 251 253 258 265 270 273 272 269 265 263 261 261 261 261
239 236 232 230 231 234 238 239 237 235 234 235 237 238 239 240 240 241 241 241 240 239 239 246 256 265 279 296 300 292 279 268 258 251 250 253 257 259 260 260 263 266 267 265 263 264 269 276 280 278 272 264 258 254 252 252 256 261 265 268 268 266 263 260 260 261 262 263 262
236 234 231 229 230 232 236 237 236 234 233 234 235 236 237 238 238 239 239 239 239 241 246 254 266 288 301 300 293 280 269 262 256 251 247 247 250 253 256 260 265 269 270 267 266 268 273 277 277 274 267 259 253 250 250 252 256 260 263 263 262 260 258 258 260 262 263 263 260
234 233 230 228 228 231 234 237 236 234 233 232 233 233 235 236 236 236 236 237 243 254 267 277 293 300 298 291 278 264 255 255 256 254 250 248 249 252 256 262 266 268 268 266 267 270 273 274 272 267 260 252 247 246 248 252 255 258 259 258 257 256 257 259 261 263 262 259 255
233 231 229 227 228 230 234 236 236 234 231 230 229 229 229 229 229 230 236 251 276 290 295 298 298 295 289 281 270 260 255 256 257 256 253 251 251 254 258 262 265 265 264 264 267 269 270 268 264 258 251 246 244 245 248 251 254 256 256 255 255 255 257 260 262 262 259 254 250
231 229 227 227 228 230 233 234 234 232 229 226 225 224 221 216 218 244 276 291 299 299 295 291 286 282 277 271 265 260 258 258 257 255 253 251 252 255 259 261 262 261 261 262 265 265 263 259 252 247 243 241 241 243 247 250 252 253 253 253 254 256 258 261 261 258 254 251 248
229 227 226 226 227 229 231 232 232 230 227 225 223 221 217 215 254 280 290 294 293 288 283 278 275 273 270 268 263 259 257 254 252 250 249 250 252 255 257 258 256 256 257 259 260 258 253 248 243 239 237 237 239 242 245 248 250 250 251 253 256 257 258 258 257 254 251 249 248
Height
1490 1492 1493 1494 1495 1496 1497 1498 1499 1500 1501 1501 1502 1503 1503 1504 1505 1506 1507 1508 1508 1509 1510 1511 1512 1513 1515 1516 1516 1517 1518 1519 1520 1520 1521 1522 1523 1524 1525 1526 1527 1528 1529 1531 1532 1533 1534 1535 1535 1536 1537 1537 1538 1539 1540 1540 1541 1541 1542 1542 1542 1543 1543 1543 1543 1544 1544 1544 1544
1490 1491 1492 1493 1494 1496 1496 1497 1498 1499 1500 1501 1501 1502 1503 1503 1504 1505 1506 1507 1507 1508 1510 1511 1511 1512 1513 1514 1515 1516 1517 1518 1518 1519 1520 1521 1521 1523 1524 1525 1526 1527 1528 1529 1531 1531 1532 1533 1534 1534 1535 1536 1536 1537 1538 1538 1539 1540 1541 1541 1541 1541 1541 1542 1542 1542 1542 1543 1543
1489 1490 1491 1492 1493 1494 1495 1496 1497 1498 1499 1500 1501 1502 1502 1503 1503 1504 1505 1506 1507 1508 1509 1510 1511 1511 1512 1513 1514 1515 1516 1516 1517 1518 1519 1520 1521 1521 1522 1524 1525 1526 1527 1528 1529 1530 1531 1531 1532 1533 1533 1534 1535 1535 1536 1537 1538 1538 1539 1539 1540 1540 1540 1540 1540 1540 1541 1541 1541
1488 1489 1490 1491 1492 1493 1493 1494 1495 1496 1497 1499 1500 1501 1501 1502 1503 1503 1504 1505 1506 1507 1507 1508 1509 1510 1511 1512 1513 1514 1515 1516 1516 1517 1518 1519 1520 1521 1521 1522 1524 1525 1526 1527 1528 1529 1529 1530 1531 1531 1532 1532 1533 1534 1535 1536 1536 1537 1537 1538 1538 1538 1538 1539 1539 1539 1539 1538 1538
1486 1487 1488 1489 1490 1491 1492 1493 1494 1495 1496 1498 1499 1500 1501 1501 1502 1502 1503 1504 1504 1505 1506 1507 1508 1509 1510 1511 1512 1513 1514 1515 1516 1516 1517 1518 1519 1520 1521 1521 1522 1523 1524 1525 1526 1527 1528 1528 1529 1530 1530 1531 1532 1532 1533 1534 1535 1536 1536 1536 1536 1536 1537 1537 1537 1537 1537 1537 1536
1485 1486 1487 1488 1489 1490 1491 1492 1493 1494 1495 1496 1497 1498 1499 1500 1500 1501 1501 1502 1503 1504 1505 1506 1507 1508 1508 1509 1511 1511 1512 1513 1514 1515 1516 1516 1517 1519 1519 1520 1521 1522 1523 1523 1524 1525 1526 1526 1527 1528 1529 1530 1531 1531 1532 1533 1534 1534 1534 1535 1535 1535 1535 1535 1535 1535 1535 1535 1535
1483 1484 1485 1486 1488 1489 1490 1491 1492 1493 1494 1495 1496 1496 1497 1498 1499 1499 1500 1501 1501 1503 1504 1505 1505 1506 1507 1508 1509 1510 1511 1512 1513 1513 1514 1515 1516 1517 1518 1519 1519 1520 1521 1521 1522 1523 1524 1525 1525 1526 1527 1528 1528 1529 1530 1531 1532 1532 1533 1533 1533 1533 1533 1533 1533 1533 1533 1533 1533
1482 1483 1484 1485 1486 1487 1488 1489 1490 1491 1492 1493 1494 1494 1495 1496 1497 1498 1499 1500 1500 1501 1502 1503 1504 1505 1505 1506 1507 1508 1509 1510 1511 1512 1513 1513 1514 1515 1516 1517 1517 1518 1518 1519 1520 1521 1521 1522 1523 1524 1524 1525 1526 1526 1528 1529 1530 1531 1531 1531 1531 1531 1531 1531 1531 1531 1531 1531 1530
1481 1481 1483 1484 1485 1486 1487 1488 1489 1490 1490 1491 1492 1493 1494 1495 1496 1496 1497 1498 1499 1500 1501 1501 1502 1503 1504 1505 1506 1506 1507 1508 1509 1510 1511 1511 1512 1513 1514 1514 1515 1516 1516 1517 1517 1518 1520 1521 1521 1521 1522 1522 1523 1524 1526 1527 1528 1528 1529 1529 1529 1529 1529 1529 1529 1529 1528 1528 1528
1478 1480 1481 1482 1483 1484 1485 1486 1487 1488 1489 1489 1490 1491 1492 1493 1494 1495 1496 1497 1498 1499 1499 1500 1501 1502 1502 1503 1504 1505 1506 1506 1507 1508 1509 1510 1510 1511 1511 1512 1513 1513 1514 1515 1515 1516 1517 1518 1518 1519 1519 1520 1521 1523 1524 1525 1526 1526 1526 1526 1526 1526 1526 1526 1526 1526 1526 1525 1525
1476 1478 1479 1480 1481 1482 1484 1485 1486 1486 1487 1488 1489 1490 1491 1492 1493 1493 1495 1496 1496 1497 1497 1498 1499 1500 1501 1501 1502 1503 1504 1505 1505 1506 1507 1507 1508 1509 1509 1510 1511 1511 1512 1512 1513 1514 1515 1515 1516 1516 1516 1517 1519 1521 1522 1523 1523 1523 1523 1522 1523 1523 1523 1523 1523 1523 1523 1523 1523
1475 1476 1477 1479 1480 1481 1482 1483 1484 1484 1485 1486 1487 1488 1489 1490 1491 1492 1493 1494 1495 1495 1496 1497 1497 1498 1499 1500 1500 1501 1502 1502 1503 1504 1505 1505 1506 1507 1507 1508 1508 1509 1510 1510 1511 1511 1512 1513 1513 1513 1514 1515 1516 1518 1518 1519 1519 1519 1519 1519 1519 1520 1521 1521 1521 1521 1521 1521 1521
1474 1475 1476 1477 1478 1480 1480 1481 1482 1482 1483 1484 1485 1486 1487 1488 1489 1490 1491 1492 1492 1493 1494 1495 1496 1496 1497 1498 1498 1499 1500 1500 1501 1502 1502 1503 1504 1505 1505 1506 1506 1507 1507 1508 1508 1509 1509 1510 1511 1511 1512 1512 1513 1514 1514 1515 1515 1516 1516 1516 1516 1517 1517 1518 1518 1519 1519 1519 1519
1473 1474 1475 1476 1477 1478 1479 1479 1480 1481 1481 1482 1483 1484 1485 1486 1487 1488 1489 1490 1491 1491 1492 1493 1494 1495 1495 1496 1496 1497 1498 1498 1499 1499 1500 1501 1501 1502 1503 1503 1504 1504 1505 1506 1506 1506 1506 1507 1508 1509 1509 1510 1511 1511 1511 1512 1513 1513 1514 1514 1515 1515 1516 1516 1516 1517 1517 1517 1517
1471 1472 1473 1474 1475 1476 1477 1477 1478 1479 1479 1480 1481 1482 1483 1484 1485 1486 1487 1488 1489 1490 1491 1491 1492 1492 1493 1494 1494 1495 1496 1496 1497 1497 1498 1498 1499 1500 1500 1501 1501 1502 1502 1503 1503 1503 1504 1504 1505 1506 1507 1508 1509 1509 1509 1510 1511 1513 1513 1514 1514 1514 1514 1515 1515 1515 1515 1515 1515
1470 1471 1471 1472 1473 1474 1475 1475 1476 1476 1477 1478 1479 1480 1481 1482 1483 1484 1485 1486 1487 1488 1489 1489 1490 1490 1491 1492 1492 1493 1493 1494 1494 1495 1495 1496 1496 1497 1498 1498 1499 1499 1500 1500 1501 1501 1501 1501 1503 1505 1506 1506 1506 1507 1508 1510 1511 1512 1512 1512 1513 1513 1513 1513 1513 1513 1513 1513 1513
1468 1469 1470 1471 1471 1472 1472 1473 1474 1474 1475 1476 1477 1478 1479 1480 1481 1482 1483 1484 1485 1486 1486 1487 1488 1488 1489 1489 1490 1491 1491 1491 1492 1492 1493 1493 1494 1495 1495 1496 1496 1497 1497 1498 1498 1499 1499 1501 1502 1503 1504 1504 1505 1506 1508 1509 1510 1511 1511 1511 1511 1511 1512 1512 1511 1511 1511 1511 1510
1466 1467 1468 1468 1469 1470 1470 1471 1471 1472 1473 1474 1475 1476 1477 1478 1479 1480 1481 1481 1482 1483 1484 1485 1486 1486 1486 1487 1488 1488 1488 1489 1489 1490 1490 1491 1492 1492 1493 1494 1494 1495 1495 1496 1497 1498 1499 1501 1501 1502 1502 1503 1504 1505 1506 1507 1508 1509 1510 1510 1510 1510 1510 1510 1510 1510 1509 1509 1508
1463 1464 1466 1466 1467 1467 1468 1469 1470 1471 1471 1473 1474 1475 1476 1477 1477 1478 1479 1480 1480 1481 1482 1483 1484 1484 1485 1485 1486 1486 1486 1486 1487 1487 1488 1489 1490 1491 1491 1492 1492 1493 1495 1496 1497 1498 1499 1500 1500 1500 1501 1501 1502 1503 1504 1505 1506 1506 1507 1508 1509 1509 1509 1509 1508 1508 1507 1506 1506
1461 1462 1463 1464 1465 1465 1466 1467 1468 1469 1470 1471 1472 1473 1474 1475 1476 1476 1477 1478 1478 1479 1480 1481 1481 1482 1482 1483 1483 1484 1484 1485 1485 1486 1486 1487 1488 1489 1490 1491 1491 1493 1495 1496 1496 1497 1497 1498 1498 1498 1499 1499 1500 1501 1502 1502 1503 1504 1505 1506 1507 1507 1507 1507 1507 1506 1505 1504 1503
1458 1459 1461 1461 1462 1463 1464 1465 1466 1467 1469 1470 1471 1471 1472 1473 1474 1475 1475 1476 1477 1477 1478 1479 1480 1480 1481 1481 1481 1482 1482 1483 1483 1484 1485 1486 1487 1489 1490 1491 1492 1493 1494 1494 1495 1495 1495 1495 1495 1496 1496 1497 1498 1498 1499 1500 1500 1501 1502 1503 1504 1505 1505 1505 1505 1504 1503 1502 1501
1456 1457 1458 1459 1461 1461 1462 1464 1465 1466 1467 1468 1469 1470 1471 1471 1472 1472 1473 1474 1475 1476 1476 1477 1477 1478 1479 1479 1480 1481 1481 1482 1484 1485 1486 1487 1488 1489 1490 1491 1492 1492 1492 1492 1492 1492 1492 1493 1493 1494 1494 1495 1496 1496 1496 1497 1498 1499 1500 1501 1501 1502 1502 1502 1501 1501 1500 1499 1499
1454 1455 1456 1457 1459 1460 1461 1462 1463 1464 1465 1466 1467 1468 1469 1469 1470 1471 1472 1473 1473 1474 1474 1475 1475 1476 1477 1478 1480 1481 1482 1483 1485 1486 1487 1488 1488 1488 1489 1489 1490 1490 1490 1489 1489 1490 1490 1490 1491 1492 1492 1493 1494 1494 1495 1495 1496 1496 1497 1498 1499 1499 1499 1499 1498 1498 1497 1497 1496
1452 1453 1454 1456 1456 1458 1459 1461 1461 1462 1463 1464 1465 1466 1467 1468 1469 1470 1471 1471 1471 1472 1472 1473 1474 1475 1476 1478 1480 1481 1482 1483 1484 1485 1486 1486 1487 1487 1487 1487 1487 1487 1487 1486 1487 1487 1487 1488 1489 1490 1491 1492 1492 1493 1493 1493 1494 1494 1495 1496 1496 1496 1496 1496 1496 1496 1495 1495 1494
1450 1451 1453 1454 1455 1456 1457 1459 1460 1461 1461 1462 1463 1465 1466 1466 1467 1468 1469 1470 1470 1471 1471 1472 1473 1474 1475 1477 1478 1479 1480 1480 1481 1483 1483 1484 1484 1485 1485 1484 1484 1484 1485 1485 1485 1485 1485 1486 1487 1489 1490 1491 1491 1492 1492 1492 1492 1492 1493 1494 1494 1494 1494 1494 1494 1493 1493 1493 1492
1449 1450 1451 1452 1454 1455 1456 1457 1458 1459 1460 1461 1462 1463 1464 1465 1466 1467 1468 1468 1469 1469 1470 1471 1472 1473 1474 1475 1476 1476 1477 1477 1478 1480 1481 1481 1481 1482 1482 1481 1481 1481 1481 1481 1481 1482 1483 1485 1487 1488 1489 1489 1490 1490 1490 1490 1490 1491 1491 1491 1492 1492 1492 1491 1491 1491 1491 1491 1491
1448 1449 1450 1451 1453 1454 1455 1456 1457 1458 1459 1460 1461 1462 1463 1464 1465 1466 1466 1467 1468 1468 1469 1470 1471 1471 1471 1472 1473 1474 1474 1475 1476 1477 1478 1479 1480 1480 1480 1478 1478 1478 1478 1478 1478 1479 1481 1484 1485 1487 1487 1488 1487 1487 1488 1488 1488 1489 1489 1490 1490 1489 1489 1489 1489 1490 1489 1489 1489
1446 1448 1449 1451 1451 1452 1453 1454 1456 1456 1457 1458 1459 1460 1461 1462 1463 1464 1465 1466 1466 1467 1468 1468 1469 1469 1469 1470 1470 1471 1471 1472 1473 1475 1476 1477 1478 1479 1478 1477 1476 1476 1476 1476 1476 1478 1480 1481 1483 1484 1484 1485 1485 1485 1485 1486 1486 1487 1487 1487 1487 1487 1487 1487 1487 1487 1487 1487 1487
1445 1446 1448 1449 1450 1451 1452 1453 1454 1455 1455 1456 1457 1459 1460 1461 1461 1462 1463 1464 1465 1465 1466 1466 1466 1466 1466 1466 1466 1467 1468 1470 1472 1474 1475 1476 1477 1477 1476 1476 1476 1475 1475 1475 1476 1477 1479 1480 1480 1481 1481 1482 1482 1483 1483 1483 1484 1485 1485 1485 1485 1485 1485 1485 1485 1485 1485 1485 1485
1443 1445 1446 1447 1448 1449 1450 1451 1452 1452 1453 1455 1456 1456 1457 1458 1459 1460 1461 1462 1462 1463 1463 1463 1463 1463 1463 1463 1463 1464 1465 1467 1470 1473 1474 1475 1475 1475 1475 1475 1474 1474 1474 1474 1476 1476 1477 1478 1478 1479 1479 1480 1481 1481 1481 1481 1482 1482 1483 1483 1483 1483 1483 1483 1483 1483 1483 1483 1483
1441 1442 1444 1446 1447 1448 1449 1449 1450 1451 1451 1452 1453 1454 1454 1455 1456 1457 1458 1459 1459 1460 1460 1460 1461 1461 1461 1460 1460 1461 1462 1465 1468 1470 1472 1473 1473 1473 1473 1473 1473 1473 1473 1474 1475 1476 1476 1476 1477 1477 1478 1478 1479 1479 1479 1480 1480 1480 1481 1481 1481 1481 1481 1481 1481 1481 1481 1481 1481
1439 1440 1442 1445 1447 1448 1447 1446 1447 1448 1449 1449 1450 1450 1451 1452 1453 1454 1455 1456 1456 1457 1457 1457 1458 1458 1458 1458 1457 1458 1461 1464 1468 1470 1471 1471 1471 1472 1471 1471 1471 1472 1472 1473 1474 1474 1475 1475 1476 1476 1476 1476 1476 1476 1477 1478 1478 1479 1479 1479 1479 1478 1478 1478 1478 1479 1479 1479 1479
1437 1438 1440 1441 1443 1445 1444 1443 1443 1444 1445 1445 1446 1446 1448 1449 1450 1451 1452 1452 1453 1454 1455 1455 1456 1456 1456 1456 1457 1458 1460 1464 1468 1470 1470 1469 1470 1470 1470 1469 1469 1470 1470 1471 1472 1472 1473 1473 1474 1474 1474 1474 1473 1474 1474 1475 1476 1476 1477 1477 1476 1476 1476 1476 1476 1476 1477 1477 1477
1434 1436 1437 1438 1438 1438 1439 1439 1440 1441 1442 1442 1442 1443 1444 1446 1446 1447 1448 1449 1451 1452 1453 1453 1455 1456 1457 1458 1458 1459 1461 1464 1467 1468 1468 1467 1467 1467 1467 1467 1466 1467 1468 1469 1470 1471 1471 1471 1472 1472 1471 1471 1471 1471 1472 1472 1473 1474 1474 1475 1474 1474 1474 1474 1474 1475 1475 1475 1476
1431 1432 1435 1436 1436 1436 1437 1438 1438 1439 1439 1439 1440 1441 1441 1443 1444 1445 1446 1448 1449 1451 1452 1453 1454 1456 1458 1459 1459 1459 1461 1463 1465 1466 1466 1466 1465 1465 1464 1464 1464 1465 1466 1467 1468 1469 1469 1470 1470 1470 1470 1470 1470 1470 1470 1470 1471 1471 1472 1473 1472 1472 1472 1472 1472 1473 1473 1473 1474
1427 1429 1432 1434 1435 1436 1436 1436 1437 1437 1437 1437 1438 1439 1440 1441 1443 1444 1446 1447 1449 1451 1452 1453 1455 1456 1457 1458 1459 1459 1459 1461 1461 1461 1462 1462 1462 1461 1461 1461 1462 1463 1465 1465 1466 1467 1467 1467 1467 1467 1468 1468 1468 1468 1468 1469 1469 1470 1471 1471 1470 1470 1470 1470 1471 1471 1471 1472 1472
1425 1428 1431 1433 1434 1435 1435 1435 1435 1435 1435 1436 1436 1437 1439 1441 1442 1444 1446 1448 1450 1451 1452 1454 1455 1456 1457 1458 1458 1458 1458 1457 1457 1458 1458 1459 1459 1459 1459 1460 1461 1462 1463 1464 1464 1465 1465 1465 1465 1466 1466 1466 1466 1466 1466 1467 1468 1469 1469 1469 1468 1468 1468 1469 1469 1470 1470 1470 1470
1425 1428 1430 1432 1433 1433 1432 1432 1433 1433 1433 1434 1436 1437 1439 1441 1443 1445 1447 1449 1450 1452 1453 1454 1454 1455 1456 1456 1456 1455 1455 1454 1455 1456 1456 1457 1457 1458 1459 1460 1460 1461 1461 1462 1463 1463 1463 1463 1463 1463 1464 1464 1464 1465 1465 1466 1467 1467 1467 1466 1466 1466 1467 1467 1468 1468 1468 1468 1468
1424 1427 1429 1431 1431 1431 1431 1431 1431 1431 1432 1433 1435 1436 1438 1441 1443 1445 1446 1448 1450 1452 1453 1454 1453 1453 1452 1452 1451 1451 1452 1452 1453 1454 1455 1456 1457 1458 1458 1459 1459 1459 1460 1460 1461 1461 1461 1461 1461 1461 1462 1462 1463 1464 1464 1465 1465 1465 1465 1465 1465 1465 1466 1466 1466 1466 1466 1466 1466
1422 1425 1427 1429 1430 1429 1429 1429 1430 1431 1431 1433 1434 1436 1438 1440 1441 1443 1445 1447 1449 1450 1451 1451 1450 1450 1449 1449 1449 1450 1450 1451 1452 1453 1454 1455 1456 1456 1457 1457 1457 1457 1458 1458 1459 1459 1459 1459 1459 1460 1460 1461 1462 1463 1463 1463 1463 1463 1463 1463 1464 1464 1464 1464 1465 1465 1464 1464 1464
1421 1423 1426 1427 1427 1427 1427 1428 1429 1430 1431 1432 1434 1436 1438 1438 1439 1441 1444 1446 1447 1448 1447 1447 1446 1446 1447 1447 1447 1448 1449 1450 1450 1451 1452 1453 1454 1454 1454 1455 1455 1456 1456 1457 1457 1457 1457 1457 1458 1458 1459 1460 1461 1461 1462 1461 1461 1461 1462 1462 1462 1463 1463 1463 1462 1463 1463 1462 1462